Stündliche Wetter Bolshie Filipkovichi

Heute, 29 November, Sonntag

Zeit Temperatur Niederschläge Wind Luftdruck Luftfeuchtigkeit
00:00 0°C° 0.5 mm 3 m/S 751 mmHg 97%
01:00 0°C° 0.5 mm 3 m/S 751 mmHg 97%
02:00 -1°C° 0 mm 4 m/S 750 mmHg 97%
03:00 -2°C° 0.6 mm 4 m/S 750 mmHg 97%
04:00 -1°C° 0.6 mm 3 m/S 750 mmHg 97%
05:00 -1°C° 0.6 mm 3 m/S 750 mmHg 97%
06:00 -1°C° 0.3 mm 3 m/S 750 mmHg 97%
07:00 -1°C° 0.3 mm 2 m/S 750 mmHg 97%
08:00 -1°C° 0.3 mm 2 m/S 750 mmHg 98%
09:00 +1°C° 0.1 mm 1 m/S 750 mmHg 97%
10:00 +2°C° 0.1 mm 1 m/S 750 mmHg 96%
11:00 +2°C° 0.1 mm 1 m/S 750 mmHg 96%
12:00 +1°C° 0 mm 2 m/S 750 mmHg 94%
13:00 +1°C° 0 mm 2 m/S 750 mmHg 93%
14:00 +1°C° 0 mm 2 m/S 750 mmHg 91%
15:00 +1°C° 0 mm 2 m/S 750 mmHg 92%
16:00 +1°C° 0 mm 2 m/S 750 mmHg 92%
17:00 +1°C° 0 mm 2 m/S 750 mmHg 93%
18:00 -1°C° 0 mm 2 m/S 751 mmHg 94%
19:00 -1°C° 0 mm 2 m/S 751 mmHg 95%
20:00 -1°C° 0 mm 2 m/S 751 mmHg 96%
21:00 -1°C° 0.1 mm 2 m/S 751 mmHg 96%
22:00 -1°C° 0.1 mm 3 m/S 752 mmHg 95%
23:00 -1°C° 0.1 mm 3 m/S 752 mmHg 95%

Morgen, 30 November, Montag

Zeit Temperatur Niederschläge Wind Luftdruck Luftfeuchtigkeit
00:00 -2°C° 0 mm 3 m/S 752 mmHg 95%
01:00 -2°C° 0 mm 3 m/S 752 mmHg 94%
02:00 -4°C° 0 mm 3 m/S 752 mmHg 94%
03:00 -4°C° 0 mm 3 m/S 752 mmHg 94%
04:00 -4°C° 0 mm 3 m/S 752 mmHg 94%
05:00 -5°C° 0 mm 3 m/S 752 mmHg 94%
06:00 -4°C° 0 mm 3 m/S 753 mmHg 93%
07:00 -3°C° 0 mm 2 m/S 753 mmHg 93%
08:00 -3°C° 0 mm 2 m/S 753 mmHg 92%
09:00 -3°C° 0 mm 2 m/S 754 mmHg 89%
10:00 -2°C° 0 mm 3 m/S 754 mmHg 86%
11:00 -1°C° 0 mm 3 m/S 754 mmHg 83%
12:00 -1°C° 0 mm 3 m/S 754 mmHg 82%
13:00 -1°C° 0 mm 3 m/S 754 mmHg 81%
14:00 -1°C° 0 mm 3 m/S 755 mmHg 80%
15:00 -1°C° 0 mm 2 m/S 755 mmHg 81%
16:00 -1°C° 0 mm 2 m/S 755 mmHg 83%
17:00 -1°C° 0 mm 2 m/S 755 mmHg 85%
18:00 -1°C° 0 mm 2 m/S 755 mmHg 85%
19:00 -1°C° 0 mm 2 m/S 755 mmHg 86%
20:00 -2°C° 0 mm 2 m/S 756 mmHg 87%
21:00 -2°C° 0 mm 2 m/S 756 mmHg 87%
22:00 -2°C° 0 mm 2 m/S 756 mmHg 87%
23:00 -2°C° 0 mm 2 m/S 756 mmHg 87%

übermorgen, 1 Dezember, Dienstag

Zeit Temperatur Niederschläge Wind Luftdruck Luftfeuchtigkeit
00:00 -2°C° 0 mm 2 m/S 756 mmHg 86%
01:00 0°C° 0 mm 1 m/S 756 mmHg 85%
02:00 0°C° 0 mm 1 m/S 757 mmHg 84%
03:00 0°C° 0 mm 1 m/S 757 mmHg 85%
04:00 0°C° 0 mm 1 m/S 757 mmHg 85%
05:00 -1°C° 0 mm 1 m/S 757 mmHg 85%
06:00 -1°C° 0 mm 1 m/S 757 mmHg 85%
07:00 -1°C° 0 mm 1 m/S 758 mmHg 85%
08:00 -1°C° 0 mm 1 m/S 758 mmHg 85%
09:00 0°C° 0 mm 1 m/S 758 mmHg 83%
10:00 -1°C° 0 mm 0 m/S 758 mmHg 80%
11:00 -1°C° 0 mm 0 m/S 758 mmHg 77%
12:00 0°C° 0 mm 0 m/S 758 mmHg 77%
13:00 0°C° 0 mm 0 m/S 758 mmHg 76%
14:00 0°C° 0 mm 0 m/S 758 mmHg 75%
15:00 0°C° 0 mm 1 m/S 758 mmHg 79%
16:00 -1°C° 0 mm 1 m/S 758 mmHg 82%
17:00 -2°C° 0 mm 1 m/S 758 mmHg 86%
18:00 -2°C° 0 mm 1 m/S 759 mmHg 86%
19:00 -4°C° 0 mm 2 m/S 759 mmHg 86%
20:00 -4°C° 0 mm 2 m/S 759 mmHg 87%
21:00 -4°C° 0 mm 2 m/S 759 mmHg 87%
22:00 -4°C° 0 mm 2 m/S 759 mmHg 88%
23:00 -4°C° 0 mm 2 m/S 759 mmHg 88%

2 Dezember, Mittwoch

Zeit Temperatur Niederschläge Wind Luftdruck Luftfeuchtigkeit
00:00 -4°C° 0 mm 2 m/S 759 mmHg 89%
01:00 -4°C° 0 mm 2 m/S 759 mmHg 90%
02:00 -4°C° 0 mm 3 m/S 759 mmHg 91%
03:00 -4°C° 0 mm 3 m/S 759 mmHg 92%
04:00 -2°C° 0 mm 3 m/S 759 mmHg 93%
05:00 -2°C° 0 mm 3 m/S 758 mmHg 94%
06:00 -2°C° 0 mm 3 m/S 758 mmHg 94%
07:00 -1°C° 0 mm 3 m/S 758 mmHg 94%
08:00 -1°C° 0 mm 3 m/S 758 mmHg 94%
09:00 -1°C° 0 mm 3 m/S 758 mmHg 92%
10:00 -2°C° 0 mm 4 m/S 758 mmHg 89%
11:00 -2°C° 0 mm 4 m/S 758 mmHg 87%
12:00 -2°C° 0 mm 4 m/S 758 mmHg 85%
13:00 -2°C° 0 mm 4 m/S 757 mmHg 84%
14:00 -1°C° 0 mm 3 m/S 757 mmHg 82%
15:00 -2°C° 0 mm 3 m/S 757 mmHg 84%
16:00 -2°C° 0 mm 3 m/S 757 mmHg 87%
17:00 -4°C° 0 mm 3 m/S 757 mmHg 89%
18:00 -4°C° 0 mm 3 m/S 757 mmHg 89%
19:00 -4°C° 0 mm 3 m/S 757 mmHg 90%
20:00 -4°C° 0 mm 3 m/S 757 mmHg 90%
21:00 -4°C° 0.1 mm 3 m/S 757 mmHg 91%
22:00 -4°C° 0.1 mm 3 m/S 757 mmHg 92%
23:00 -4°C° 0.1 mm 3 m/S 756 mmHg 93%

3 Dezember, Donnerstag

Zeit Temperatur Niederschläge Wind Luftdruck Luftfeuchtigkeit
00:00 -4°C° 0.1 mm 3 m/S 756 mmHg 93%
01:00 -4°C° 0.1 mm 3 m/S 756 mmHg 93%
02:00 -4°C° 0.1 mm 3 m/S 756 mmHg 93%
03:00 -4°C° 0.1 mm 3 m/S 756 mmHg 93%
04:00 -4°C° 0.1 mm 3 m/S 756 mmHg 93%
05:00 -4°C° 0.1 mm 3 m/S 756 mmHg 93%
06:00 -4°C° 0.1 mm 3 m/S 756 mmHg 93%
07:00 -4°C° 0.1 mm 3 m/S 756 mmHg 94%
08:00 -4°C° 0.1 mm 3 m/S 756 mmHg 94%
09:00 -4°C° 0 mm 3 m/S 756 mmHg 92%
10:00 -3°C° 0 mm 4 m/S 756 mmHg 91%
11:00 -3°C° 0 mm 4 m/S 756 mmHg 89%
12:00 -3°C° 0 mm 4 m/S 756 mmHg 89%
13:00 -3°C° 0 mm 4 m/S 756 mmHg 89%
14:00 -3°C° 0 mm 4 m/S 755 mmHg 88%
15:00 -3°C° 0 mm 4 m/S 755 mmHg 89%
16:00 -3°C° 0 mm 4 m/S 755 mmHg 90%
17:00 -3°C° 0 mm 4 m/S 755 mmHg 91%
18:00 -3°C° 0 mm 4 m/S 755 mmHg 91%
19:00 -3°C° 0 mm 4 m/S 755 mmHg 91%
20:00 -3°C° 0 mm 4 m/S 755 mmHg 92%
21:00 -3°C° 0 mm 4 m/S 755 mmHg 92%
22:00 -3°C° 0 mm 4 m/S 755 mmHg 92%
23:00 -3°C° 0 mm 4 m/S 755 mmHg 92%

4 Dezember, Freitag

Zeit Temperatur Niederschläge Wind Luftdruck Luftfeuchtigkeit
00:00 -3°C° 0 mm 4 m/S 755 mmHg 93%
01:00 -4°C° 0 mm 4 m/S 755 mmHg 94%
02:00 -4°C° 0 mm 3 m/S 755 mmHg 95%
03:00 -4°C° 0 mm 4 m/S 755 mmHg 94%
04:00 -4°C° 0 mm 4 m/S 755 mmHg 94%
05:00 -3°C° 0 mm 4 m/S 755 mmHg 93%
06:00 -3°C° 0 mm 4 m/S 754 mmHg 93%
07:00 -3°C° 0 mm 4 m/S 754 mmHg 92%
08:00 -3°C° 0 mm 4 m/S 754 mmHg 92%
09:00 -4°C° 0 mm 5 m/S 754 mmHg 91%
10:00 -2°C° 0 mm 5 m/S 754 mmHg 91%
11:00 -2°C° 0 mm 5 m/S 754 mmHg 90%
12:00 -2°C° 0 mm 5 m/S 754 mmHg 90%
13:00 -2°C° 0 mm 5 m/S 754 mmHg 90%
14:00 -2°C° 0 mm 5 m/S 754 mmHg 90%
15:00 -2°C° 0 mm 5 m/S 754 mmHg 91%
16:00 -2°C° 0 mm 5 m/S 754 mmHg 91%
17:00 -2°C° 0 mm 5 m/S 753 mmHg 91%
18:00 -2°C° 0 mm 5 m/S 753 mmHg 91%
19:00 -2°C° 0 mm 5 m/S 753 mmHg 91%
20:00 -2°C° 0 mm 5 m/S 753 mmHg 91%
21:00 -2°C° 0 mm 5 m/S 753 mmHg 92%
22:00 -2°C° 0 mm 5 m/S 753 mmHg 92%
23:00 -2°C° 0 mm 5 m/S 753 mmHg 93%
Mehr zeigen

Wir brauchen deine Erlaubnis

Meteoprog und unser Service Anbieter werden persönliche Daten aufbewahren, so wie Cookies, Geräte Bezeichnung oder ähnliche Technologien von deinem Gerät und Prozess, so wie Persönliche Daten Inhalte und Werbungen, genauso wie social Media und den Verkehr zu analysieren.

  • Aufbewahrung und/oder Zugang zu deiner Geräte Informationen.

    Cookies, Geräte Bezeichnung oder andere Informationen, können aufbewahrt oder Zugang zu deinem Gerät erhalten, für den Grund, der oben angegeben wird.

  • Personalisierte Werbung und Inhalte, Messungen, Einblick in das Publikum und Produkt Entwicklung.

    Werbungen und Inhalte können personalisiert werden, basierend auf ein Profil. Mehr Daten können besser personalisierte Werbungen und Inhalte hinzufügen. Werbung und Inhalte können gezeigt und gemessen werden. Einblicke über das Publikum, welche die Werbung gesehen haben und den Inhalt, können abgeleitet werden. So wie Daten können genutzt werden, um es zu verbessern oder die Benutzer Erfahrung zu verbessern das System und die Software.

Wenn du “Ich stimme zu” klickst, erlaubst du uns, die Cookies zu benutzen die Geräte Bezeichnung, den Web oder ähnliche Technologien zu benutzen. Deine Settings, können in deinem Gerät bei deinem Browser geändert werden.

Für den bestimmten Zweck, berechtigten Interessen beruhen darauf, mehr als auf den Inhalt. Du kannst mehr darüber in unseren Privaten und Cookie Politik lesen.